• en France
  • Liste des pays
  • À 7 jours
  • Température de l'eau
  • Carte satellitaire
  • Carte météo
  • Widgets météo
  • user-avatar
    Se connecter

    Météo par heure à Abidzhan

    Ce jour, 14 Décembre, Jeudi

    Heure Température Précipitation Vent Pression Humidité
    00:00 +27°C° 0 mm 2 m/s 755 mmHg 89%
    01:00 +27°C° 0,1 mm 1 m/s 755 mmHg 90%
    02:00 +27°C° 0,1 mm 1 m/s 755 mmHg 90%
    03:00 +27°C° 0,1 mm 1 m/s 754 mmHg 90%
    04:00 +27°C° 0 mm 1 m/s 754 mmHg 91%
    05:00 +27°C° 0 mm 1 m/s 754 mmHg 91%
    06:00 +27°C° 0 mm 1 m/s 754 mmHg 92%
    07:00 +28°C° 0 mm 1 m/s 755 mmHg 84%
    08:00 +30°C° 0 mm 1 m/s 755 mmHg 76%
    09:00 +31°C° 0 mm 1 m/s 755 mmHg 68%
    10:00 +32°C° 0 mm 2 m/s 755 mmHg 63%
    11:00 +34°C° 0 mm 2 m/s 755 mmHg 59%
    12:00 +35°C° 0 mm 2 m/s 754 mmHg 55%
    13:00 +35°C° 0,1 mm 2 m/s 754 mmHg 55%
    14:00 +35°C° 0,1 mm 3 m/s 754 mmHg 55%
    15:00 +35°C° 0,1 mm 3 m/s 753 mmHg 55%
    16:00 +34°C° 0,1 mm 3 m/s 753 mmHg 62%
    17:00 +31°C° 0,1 mm 3 m/s 753 mmHg 68%
    18:00 +30°C° 0,1 mm 3 m/s 753 mmHg 75%
    19:00 +29°C° 0 mm 3 m/s 754 mmHg 77%
    20:00 +29°C° 0 mm 3 m/s 755 mmHg 80%
    21:00 +28°C° 0 mm 3 m/s 755 mmHg 83%
    22:00 +28°C° 0 mm 3 m/s 755 mmHg 85%
    23:00 +28°C° 0 mm 3 m/s 755 mmHg 87%

    Demain, 15 Décembre, Vendredi

    Heure Température Précipitation Vent Pression Humidité
    00:00 +27°C° 0 mm 3 m/s 755 mmHg 89%
    01:00 +27°C° 0 mm 3 m/s 755 mmHg 90%
    02:00 +27°C° 0 mm 3 m/s 755 mmHg 91%
    03:00 +27°C° 0 mm 3 m/s 754 mmHg 91%
    04:00 +27°C° 0 mm 3 m/s 754 mmHg 92%
    05:00 +27°C° 0 mm 3 m/s 755 mmHg 93%
    06:00 +27°C° 0 mm 3 m/s 755 mmHg 94%
    07:00 +28°C° 0 mm 3 m/s 755 mmHg 87%
    08:00 +29°C° 0 mm 3 m/s 755 mmHg 81%
    09:00 +30°C° 0 mm 3 m/s 756 mmHg 75%
    10:00 +31°C° 0 mm 3 m/s 755 mmHg 72%
    11:00 +31°C° 0 mm 3 m/s 755 mmHg 70%
    12:00 +31°C° 0 mm 3 m/s 755 mmHg 67%
    13:00 +31°C° 0,1 mm 3 m/s 754 mmHg 67%
    14:00 +31°C° 0,1 mm 3 m/s 754 mmHg 67%
    15:00 +31°C° 0,1 mm 3 m/s 753 mmHg 67%
    16:00 +31°C° 0,1 mm 3 m/s 753 mmHg 71%
    17:00 +30°C° 0,1 mm 3 m/s 753 mmHg 74%
    18:00 +29°C° 0,1 mm 3 m/s 753 mmHg 78%
    19:00 +28°C° 0 mm 3 m/s 754 mmHg 80%
    20:00 +28°C° 0 mm 3 m/s 755 mmHg 83%
    21:00 +27°C° 0 mm 2 m/s 755 mmHg 85%
    22:00 +27°C° 0 mm 3 m/s 755 mmHg 87%
    23:00 +27°C° 0 mm 3 m/s 755 mmHg 88%

    Après-demain, 16 Décembre, Samedi

    Heure Température Précipitation Vent Pression Humidité
    00:00 +27°C° 0 mm 3 m/s 755 mmHg 89%
    01:00 +27°C° 0 mm 3 m/s 754 mmHg 90%
    02:00 +26°C° 0 mm 3 m/s 754 mmHg 91%
    03:00 +26°C° 0 mm 3 m/s 753 mmHg 92%
    04:00 +26°C° 0,4 mm 3 m/s 754 mmHg 93%
    05:00 +26°C° 0,4 mm 3 m/s 754 mmHg 93%
    06:00 +26°C° 0,4 mm 3 m/s 754 mmHg 94%
    07:00 +27°C° 0 mm 3 m/s 755 mmHg 87%
    08:00 +29°C° 0 mm 3 m/s 755 mmHg 80%
    09:00 +30°C° 0 mm 3 m/s 756 mmHg 73%
    10:00 +31°C° 0,1 mm 3 m/s 756 mmHg 68%
    11:00 +33°C° 0,1 mm 3 m/s 755 mmHg 63%
    12:00 +34°C° 0,1 mm 3 m/s 755 mmHg 58%
    13:00 +34°C° 0,1 mm 3 m/s 754 mmHg 59%
    14:00 +34°C° 0,1 mm 3 m/s 754 mmHg 61%
    15:00 +33°C° 0,1 mm 4 m/s 753 mmHg 63%
    16:00 +31°C° 0,1 mm 3 m/s 753 mmHg 67%
    17:00 +30°C° 0,1 mm 3 m/s 754 mmHg 72%
    18:00 +29°C° 0,1 mm 3 m/s 754 mmHg 77%
    19:00 +29°C° 0 mm 3 m/s 754 mmHg 80%
    20:00 +28°C° 0 mm 3 m/s 755 mmHg 83%
    21:00 +27°C° 0 mm 3 m/s 756 mmHg 86%
    22:00 +27°C° 0 mm 3 m/s 756 mmHg 87%
    23:00 +27°C° 0 mm 3 m/s 755 mmHg 89%

    17 Décembre, Dimanche

    Heure Température Précipitation Vent Pression Humidité
    00:00 +27°C° 0 mm 3 m/s 755 mmHg 90%
    01:00 +27°C° 0 mm 3 m/s 755 mmHg 91%
    02:00 +27°C° 0 mm 3 m/s 754 mmHg 91%
    03:00 +26°C° 0 mm 3 m/s 753 mmHg 92%
    04:00 +26°C° 0 mm 3 m/s 754 mmHg 92%
    05:00 +26°C° 0 mm 3 m/s 754 mmHg 93%
    06:00 +26°C° 0 mm 3 m/s 754 mmHg 93%
    07:00 +27°C° 0 mm 3 m/s 754 mmHg 90%
    08:00 +28°C° 0 mm 3 m/s 755 mmHg 87%
    09:00 +28°C° 0 mm 3 m/s 756 mmHg 84%
    10:00 +30°C° 0 mm 3 m/s 755 mmHg 77%
    11:00 +31°C° 0 mm 3 m/s 755 mmHg 70%
    12:00 +34°C° 0 mm 3 m/s 754 mmHg 62%
    13:00 +34°C° 0 mm 3 m/s 754 mmHg 61%
    14:00 +34°C° 0 mm 3 m/s 753 mmHg 59%
    15:00 +35°C° 0 mm 3 m/s 752 mmHg 58%
    16:00 +33°C° 0,1 mm 3 m/s 753 mmHg 64%
    17:00 +31°C° 0,1 mm 3 m/s 753 mmHg 70%
    18:00 +30°C° 0,1 mm 3 m/s 753 mmHg 76%
    19:00 +29°C° 0 mm 3 m/s 754 mmHg 79%
    20:00 +29°C° 0 mm 3 m/s 754 mmHg 82%
    21:00 +28°C° 0 mm 3 m/s 755 mmHg 85%
    22:00 +28°C° 0 mm 3 m/s 755 mmHg 86%
    23:00 +28°C° 0 mm 3 m/s 755 mmHg 87%

    18 Décembre, Lundi

    Heure Température Précipitation Vent Pression Humidité
    00:00 +27°C° 0 mm 3 m/s 755 mmHg 88%
    01:00 +27°C° 0 mm 4 m/s 754 mmHg 89%
    02:00 +27°C° 0 mm 4 m/s 754 mmHg 90%
    03:00 +27°C° 0 mm 4 m/s 753 mmHg 91%
    04:00 +27°C° 0 mm 4 m/s 754 mmHg 91%
    05:00 +27°C° 0 mm 4 m/s 754 mmHg 91%
    06:00 +27°C° 0 mm 4 m/s 754 mmHg 91%
    07:00 +28°C° 0 mm 4 m/s 755 mmHg 86%
    08:00 +29°C° 0 mm 4 m/s 755 mmHg 81%
    09:00 +30°C° 0 mm 4 m/s 756 mmHg 77%
    10:00 +30°C° 0,1 mm 4 m/s 755 mmHg 74%
    11:00 +32°C° 0,1 mm 4 m/s 755 mmHg 71%
    12:00 +31°C° 0,1 mm 3 m/s 755 mmHg 68%
    13:00 +33°C° 0 mm 3 m/s 754 mmHg 66%
    14:00 +33°C° 0 mm 4 m/s 753 mmHg 63%
    15:00 +34°C° 0 mm 4 m/s 753 mmHg 61%
    16:00 +33°C° 0 mm 4 m/s 753 mmHg 65%
    17:00 +31°C° 0 mm 3 m/s 753 mmHg 69%
    18:00 +30°C° 0 mm 3 m/s 753 mmHg 73%
    19:00 +29°C° 0,1 mm 3 m/s 754 mmHg 77%
    20:00 +28°C° 0,1 mm 3 m/s 754 mmHg 81%
    21:00 +28°C° 0,1 mm 3 m/s 755 mmHg 85%
    22:00 +27°C° 0,4 mm 3 m/s 755 mmHg 87%
    23:00 +27°C° 0,4 mm 3 m/s 755 mmHg 88%

    19 Décembre, Mardi

    Heure Température Précipitation Vent Pression Humidité
    00:00 +27°C° 0,4 mm 3 m/s 755 mmHg 90%
    01:00 +27°C° 0,2 mm 3 m/s 754 mmHg 90%
    02:00 +27°C° 0,2 mm 3 m/s 754 mmHg 91%
    03:00 +26°C° 0,2 mm 3 m/s 753 mmHg 91%
    04:00 +26°C° 0 mm 3 m/s 754 mmHg 91%
    05:00 +26°C° 0 mm 3 m/s 754 mmHg 92%
    06:00 +26°C° 0 mm 3 m/s 754 mmHg 92%
    07:00 +28°C° 0 mm 3 m/s 755 mmHg 86%
    08:00 +29°C° 0 mm 3 m/s 755 mmHg 80%
    09:00 +30°C° 0 mm 3 m/s 756 mmHg 73%
    10:00 +32°C° 0,2 mm 4 m/s 755 mmHg 69%
    11:00 +33°C° 0,2 mm 4 m/s 755 mmHg 66%
    12:00 +34°C° 0,2 mm 4 m/s 755 mmHg 62%
    13:00 +34°C° 0,6 mm 4 m/s 754 mmHg 63%
    14:00 +33°C° 0,6 mm 4 m/s 753 mmHg 65%
    15:00 +33°C° 0,6 mm 4 m/s 753 mmHg 66%
    16:00 +32°C° 0,4 mm 4 m/s 753 mmHg 72%
    17:00 +30°C° 0,4 mm 3 m/s 754 mmHg 77%
    18:00 +29°C° 0,4 mm 3 m/s 754 mmHg 82%
    19:00 +28°C° 0 mm 3 m/s 754 mmHg 84%
    20:00 +28°C° 0 mm 3 m/s 755 mmHg 87%
    21:00 +27°C° 0 mm 2 m/s 755 mmHg 89%
    22:00 +27°C° 0 mm 2 m/s 755 mmHg 90%
    23:00 +27°C° 0 mm 2 m/s 755 mmHg 91%
    Voir plus